EN

Hourly Weather Lagos de Moreno

Today, 30 July, Friday

Time Temperature Precipitation Wind Pressure Humidity
00:00 +16°C° 0 mm 2 mps 610 mmHg 83%
01:00 +16°C° 0 mm 2 mps 610 mmHg 86%
02:00 +15°C° 0 mm 2 mps 610 mmHg 89%
03:00 +15°C° 0 mm 2 mps 610 mmHg 89%
04:00 +15°C° 0 mm 2 mps 610 mmHg 89%
05:00 +15°C° 0 mm 2 mps 610 mmHg 90%
06:00 +16°C° 0 mm 2 mps 611 mmHg 82%
07:00 +18°C° 0 mm 2 mps 612 mmHg 75%
08:00 +20°C° 0 mm 2 mps 613 mmHg 67%
09:00 +23°C° 0 mm 2 mps 613 mmHg 61%
10:00 +25°C° 0 mm 3 mps 613 mmHg 54%
11:00 +26°C° 0 mm 3 mps 613 mmHg 48%
12:00 +27°C° 0 mm 3 mps 613 mmHg 46%
13:00 +27°C° 0 mm 3 mps 613 mmHg 44%
14:00 +28°C° 0 mm 3 mps 612 mmHg 43%
15:00 +27°C° 0 mm 4 mps 612 mmHg 46%
16:00 +26°C° 0 mm 5 mps 612 mmHg 50%
17:00 +24°C° 0 mm 6 mps 611 mmHg 53%
18:00 +23°C° 0 mm 6 mps 611 mmHg 59%
19:00 +21°C° 0 mm 5 mps 611 mmHg 65%
20:00 +19°C° 0 mm 5 mps 611 mmHg 71%
21:00 +19°C° 0 mm 4 mps 611 mmHg 75%
22:00 +18°C° 0 mm 4 mps 611 mmHg 79%
23:00 +17°C° 0 mm 3 mps 611 mmHg 83%

Tomorrow, 31 July, Saturday

Time Temperature Precipitation Wind Pressure Humidity
00:00 +16°C° 0 mm 2 mps 611 mmHg 85%
01:00 +16°C° 0 mm 2 mps 611 mmHg 86%
02:00 +16°C° 0 mm 1 mps 610 mmHg 87%
03:00 +15°C° 0 mm 1 mps 611 mmHg 88%
04:00 +15°C° 0 mm 1 mps 611 mmHg 88%
05:00 +15°C° 0 mm 1 mps 611 mmHg 88%
06:00 +18°C° 0 mm 1 mps 612 mmHg 80%
07:00 +20°C° 0 mm 1 mps 612 mmHg 72%
08:00 +21°C° 0 mm 1 mps 613 mmHg 63%
09:00 +23°C° 0 mm 1 mps 613 mmHg 57%
10:00 +25°C° 0 mm 1 mps 614 mmHg 52%
11:00 +26°C° 0 mm 1 mps 614 mmHg 46%
12:00 +26°C° 0 mm 1 mps 613 mmHg 47%
13:00 +26°C° 0 mm 2 mps 613 mmHg 49%
14:00 +26°C° 0 mm 2 mps 612 mmHg 50%
15:00 +25°C° 0.3 mm 2 mps 612 mmHg 54%
16:00 +24°C° 0.3 mm 2 mps 612 mmHg 59%
17:00 +22°C° 0.3 mm 3 mps 611 mmHg 63%
18:00 +21°C° 0.1 mm 2 mps 611 mmHg 67%
19:00 +20°C° 0.1 mm 2 mps 611 mmHg 72%
20:00 +19°C° 0.1 mm 1 mps 611 mmHg 76%
21:00 +18°C° 0 mm 1 mps 611 mmHg 78%
22:00 +18°C° 0 mm 1 mps 611 mmHg 80%
23:00 +16°C° 0 mm 1 mps 611 mmHg 82%

Day after tomorrow, 1 August, Sunday

Time Temperature Precipitation Wind Pressure Humidity
00:00 +16°C° 0 mm 1 mps 611 mmHg 83%
01:00 +15°C° 0 mm 1 mps 611 mmHg 85%
02:00 +14°C° 0 mm 0 mps 611 mmHg 86%
03:00 +15°C° 0 mm 1 mps 611 mmHg 86%
04:00 +15°C° 0 mm 1 mps 611 mmHg 85%
05:00 +15°C° 0 mm 1 mps 611 mmHg 85%
06:00 +18°C° 0 mm 1 mps 611 mmHg 78%
07:00 +19°C° 0 mm 1 mps 612 mmHg 71%
08:00 +21°C° 0 mm 1 mps 613 mmHg 63%
09:00 +23°C° 0 mm 1 mps 613 mmHg 57%
10:00 +25°C° 0 mm 1 mps 614 mmHg 50%
11:00 +27°C° 0 mm 1 mps 614 mmHg 43%
12:00 +27°C° 0 mm 2 mps 613 mmHg 41%
13:00 +28°C° 0 mm 2 mps 613 mmHg 38%
14:00 +29°C° 0 mm 2 mps 613 mmHg 36%
15:00 +28°C° 0 mm 2 mps 612 mmHg 41%
16:00 +27°C° 0 mm 2 mps 612 mmHg 46%
17:00 +26°C° 0 mm 2 mps 611 mmHg 51%
18:00 +25°C° 0.2 mm 2 mps 611 mmHg 55%
19:00 +23°C° 0.2 mm 2 mps 611 mmHg 59%
20:00 +21°C° 0.2 mm 3 mps 611 mmHg 64%
21:00 +19°C° 0.1 mm 3 mps 611 mmHg 72%
22:00 +18°C° 0.1 mm 3 mps 611 mmHg 81%
23:00 +16°C° 0.1 mm 3 mps 611 mmHg 89%

2 August, Monday

Time Temperature Precipitation Wind Pressure Humidity
00:00 +16°C° 0 mm 2 mps 611 mmHg 90%
01:00 +15°C° 0 mm 1 mps 611 mmHg 91%
02:00 +15°C° 0 mm 1 mps 610 mmHg 92%
03:00 +15°C° 0 mm 1 mps 610 mmHg 91%
04:00 +15°C° 0 mm 1 mps 610 mmHg 91%
05:00 +15°C° 0 mm 1 mps 610 mmHg 91%
06:00 +16°C° 0 mm 1 mps 611 mmHg 84%
07:00 +19°C° 0 mm 1 mps 612 mmHg 77%
08:00 +21°C° 0 mm 1 mps 613 mmHg 70%
09:00 +22°C° 0.1 mm 1 mps 613 mmHg 63%
10:00 +24°C° 0.1 mm 1 mps 613 mmHg 57%
11:00 +26°C° 0.1 mm 1 mps 613 mmHg 50%
12:00 +26°C° 0.1 mm 1 mps 613 mmHg 48%
13:00 +27°C° 0.1 mm 1 mps 612 mmHg 46%
14:00 +27°C° 0.1 mm 2 mps 612 mmHg 44%
15:00 +27°C° 0 mm 1 mps 611 mmHg 46%
16:00 +26°C° 0 mm 1 mps 611 mmHg 48%
17:00 +26°C° 0 mm 1 mps 611 mmHg 50%
18:00 +24°C° 0.2 mm 1 mps 610 mmHg 57%
19:00 +22°C° 0.2 mm 1 mps 610 mmHg 64%
20:00 +20°C° 0.2 mm 2 mps 610 mmHg 71%
21:00 +19°C° 0.7 mm 2 mps 610 mmHg 75%
22:00 +19°C° 0.7 mm 1 mps 611 mmHg 79%
23:00 +19°C° 0.7 mm 1 mps 611 mmHg 83%

3 August, Tuesday

Time Temperature Precipitation Wind Pressure Humidity
00:00 +18°C° 0.6 mm 1 mps 610 mmHg 85%
01:00 +18°C° 0.6 mm 1 mps 610 mmHg 87%
02:00 +18°C° 0.6 mm 1 mps 610 mmHg 89%
03:00 +18°C° 0.1 mm 1 mps 610 mmHg 89%
04:00 +16°C° 0.1 mm 1 mps 610 mmHg 89%
05:00 +16°C° 0.1 mm 1 mps 610 mmHg 89%
06:00 +18°C° 0.1 mm 1 mps 611 mmHg 85%
07:00 +19°C° 0.1 mm 1 mps 611 mmHg 80%
08:00 +21°C° 0.1 mm 1 mps 612 mmHg 75%
09:00 +21°C° 0.7 mm 2 mps 612 mmHg 69%
10:00 +24°C° 0.7 mm 2 mps 612 mmHg 62%
11:00 +25°C° 0.7 mm 2 mps 612 mmHg 56%
12:00 +25°C° 1.1 mm 1 mps 612 mmHg 55%
13:00 +25°C° 1.1 mm 1 mps 611 mmHg 54%
14:00 +26°C° 1.1 mm 1 mps 611 mmHg 53%
15:00 +25°C° 0.5 mm 1 mps 610 mmHg 59%
16:00 +23°C° 0.5 mm 2 mps 610 mmHg 65%
17:00 +21°C° 0.5 mm 2 mps 610 mmHg 71%
18:00 +20°C° 1.2 mm 2 mps 610 mmHg 76%
19:00 +19°C° 1.2 mm 2 mps 610 mmHg 82%
20:00 +18°C° 1.2 mm 2 mps 610 mmHg 87%
21:00 +17°C° 0.1 mm 2 mps 611 mmHg 89%
22:00 +18°C° 0.1 mm 1 mps 611 mmHg 90%
23:00 +18°C° 0.1 mm 1 mps 611 mmHg 92%

4 August, Wednesday

Time Temperature Precipitation Wind Pressure Humidity
00:00 +18°C° 0 mm 1 mps 610 mmHg 92%
01:00 +16°C° 0 mm 1 mps 610 mmHg 92%
02:00 +16°C° 0 mm 1 mps 610 mmHg 92%
03:00 +16°C° 0 mm 1 mps 610 mmHg 92%
04:00 +16°C° 0 mm 1 mps 610 mmHg 92%
05:00 +16°C° 0 mm 1 mps 610 mmHg 92%
06:00 +16°C° 0.2 mm 1 mps 610 mmHg 92%
07:00 +18°C° 0.2 mm 1 mps 611 mmHg 91%
08:00 +17°C° 0.2 mm 2 mps 611 mmHg 90%
09:00 +17°C° 0.1 mm 2 mps 611 mmHg 88%
10:00 +17°C° 0.1 mm 2 mps 611 mmHg 87%
11:00 +18°C° 0.1 mm 2 mps 611 mmHg 85%
12:00 +19°C° 0 mm 2 mps 611 mmHg 79%
13:00 +20°C° 0 mm 2 mps 611 mmHg 72%
14:00 +21°C° 0 mm 2 mps 611 mmHg 66%
15:00 +21°C° 0.1 mm 2 mps 611 mmHg 65%
16:00 +21°C° 0.1 mm 2 mps 611 mmHg 64%
17:00 +21°C° 0.1 mm 2 mps 610 mmHg 63%
18:00 +20°C° 0.2 mm 2 mps 610 mmHg 69%
19:00 +19°C° 0.2 mm 2 mps 610 mmHg 75%
20:00 +19°C° 0.2 mm 1 mps 610 mmHg 80%
21:00 +19°C° 0.3 mm 1 mps 610 mmHg 82%
22:00 +18°C° 0.3 mm 2 mps 611 mmHg 83%
23:00 +18°C° 0.3 mm 2 mps 611 mmHg 84%
Show more